Location: Bannatyne
(13.0833°N, 59.5333°W)
Time: 16:43:06
(UTC+00:00)

Altair - All Passes

Search period start: 27 January 2020 00:00
Search period end: 06 February 2020 00:00
Orbit: 1502 x 1682 km, 47.2° (Epoch: 26 January)

Date Brightness Start Highest point End Pass type
(mag) Time Alt. Az. Time Alt. Az. Time Alt. Az.
27 Jan - 08:41:44 10° SSW 08:50:40 44° SE 08:59:55 10° ENE visible
27 Jan - 10:46:10 10° WSW 10:55:21 45° NW 11:04:50 10° NNE daylight
27 Jan - 13:00:09 10° NW 13:02:28 11° NNW 13:04:47 10° NNW daylight
27 Jan - 17:17:57 10° N 17:23:10 15° NNE 17:28:18 10° ENE daylight
27 Jan - 19:19:42 10° NNW 19:29:33 61° NE 19:38:59 10° SE daylight
27 Jan - 21:25:49 10° WNW 21:33:55 30° SW 21:41:49 10° S daylight
28 Jan - 08:16:52 10° SSW 08:25:32 39° SE 08:34:28 10° ENE visible
28 Jan - 10:20:48 10° WSW 10:30:06 49° NW 10:39:45 10° NNE daylight
28 Jan - 12:33:26 10° NW 12:36:58 12° NNW 12:40:32 10° N daylight
28 Jan - 16:53:14 10° N 16:57:42 13° NNE 17:02:09 10° ENE daylight
28 Jan - 18:54:34 10° NNW 19:04:20 55° NE 19:13:41 10° ESE daylight
28 Jan - 21:00:16 10° WNW 21:08:47 34° SW 21:17:03 10° S daylight
29 Jan - 07:52:02 10° S 08:00:23 34° SE 08:08:59 10° ENE visible
29 Jan - 09:55:27 10° WSW 10:04:52 55° NW 10:14:38 10° NNE visible
29 Jan - 12:07:05 10° NW 12:11:29 13° NNW 12:15:58 10° N daylight
29 Jan - 16:28:39 10° N 16:32:15 12° NNE 16:35:48 10° NE daylight
29 Jan - 18:29:28 10° NNW 18:39:05 50° NE 18:48:21 10° ESE daylight
29 Jan - 20:34:46 10° WNW 20:43:38 38° SW 20:52:15 10° SSE daylight
30 Jan - 07:27:16 10° S 07:35:15 30° SE 07:43:26 10° ENE visible
30 Jan - 09:30:09 10° SW 09:39:39 61° NW 09:49:30 10° NNE visible
30 Jan - 11:40:55 10° WNW 11:46:02 15° NNW 11:51:15 10° N daylight
30 Jan - 16:04:22 10° NNE 16:06:45 11° NNE 16:09:08 10° NE daylight
30 Jan - 18:04:22 10° NNW 18:13:51 45° NE 18:23:00 10° ESE daylight
30 Jan - 20:09:19 10° WNW 20:18:30 43° SW 20:27:23 10° SSE daylight
31 Jan - 07:02:34 10° S 07:10:06 27° SE 07:17:49 10° ENE visible
31 Jan - 09:04:54 10° SW 09:14:26 67° NW 09:24:21 10° NE visible
31 Jan - 11:14:53 10° WNW 11:20:37 17° NNW 11:26:27 10° N daylight
31 Jan - 17:39:17 10° NNW 17:48:35 41° NE 17:57:35 10° ESE daylight
31 Jan - 19:43:55 10° WNW 19:53:21 49° SW 20:02:28 10° SSE daylight
01 Feb - 06:37:56 10° S 06:44:58 23° SE 06:52:08 10° ENE visible
01 Feb - 08:39:40 10° SW 08:49:14 74° NW 08:59:11 10° NE visible
01 Feb - 10:48:57 10° WNW 10:55:12 18° NNW 11:01:36 10° N daylight
01 Feb - 17:14:14 10° NNW 17:23:19 37° NE 17:32:07 10° ESE daylight
01 Feb - 19:18:34 10° NW 19:28:12 55° SW 19:37:31 10° SSE daylight
02 Feb - 06:13:25 10° S 06:19:49 20° SE 06:26:20 10° E visible
02 Feb - 08:14:29 10° SW 08:24:02 82° NW 08:34:00 10° NE visible
02 Feb - 10:23:07 10° W 10:29:49 20° NW 10:36:42 10° N daylight
02 Feb - 16:49:11 10° NNW 16:58:01 33° NE 17:06:36 10° ESE daylight
02 Feb - 18:53:14 10° NW 19:03:02 61° SW 19:12:31 10° SSE daylight
03 Feb - 05:49:01 10° SSE 05:54:40 17° SE 06:00:24 10° E visible
03 Feb - 07:49:20 10° SW 07:58:52 89° WNW 08:08:48 10° NE visible
03 Feb - 09:57:21 10° W 10:04:27 22° NW 10:11:46 10° NNE visible
03 Feb - 16:24:10 10° NNW 16:32:43 30° NE 16:41:03 10° E daylight
03 Feb - 18:27:55 10° NW 18:37:52 68° SW 18:47:29 10° SSE daylight
03 Feb - 20:40:08 10° WSW 20:42:09 11° SW 20:44:11 10° SW daylight
04 Feb - 05:24:49 10° SSE 05:29:31 15° SE 05:34:15 10° E visible
04 Feb - 07:24:13 10° SW 07:33:42 83° SE 07:43:35 10° NE visible
04 Feb - 09:31:38 10° W 09:39:07 25° NW 09:46:48 10° NNE visible
04 Feb - 15:59:09 10° NNW 16:07:24 28° NE 16:15:27 10° E daylight
04 Feb - 18:02:38 10° NW 18:12:43 76° SW 18:22:25 10° SE daylight
04 Feb - 20:12:56 10° WSW 20:16:58 13° SW 20:20:59 10° SSW daylight
05 Feb - 05:01:00 10° SSE 05:04:21 12° SE 05:07:43 10° ESE night (unlit)
05 Feb - 06:59:08 10° SSW 07:08:33 75° SE 07:18:21 10° NE visible
05 Feb - 09:06:00 10° W 09:13:46 27° NW 09:21:50 10° NNE visible
05 Feb - 15:34:11 10° NNW 15:42:03 25° NE 15:49:47 10° E daylight
05 Feb - 17:37:24 10° NW 17:47:32 84° SW 17:57:19 10° SE daylight
05 Feb - 19:46:32 10° W 19:51:48 16° SW 19:57:00 10° SSW daylight
